QAEM 100 R/B, 61071

Orbit data source: Space-Track

QAEM 100 R/B, 61071 is space debris in LEO originally from a launch on Sat, 14 Sep 2024 UTC via a QAEM-100 launch vehicle from the Sharud Missile Test Site (SMTS). Debris objects in space refer to the collection of defunct objects orbiting the Earth. Examples of debris include non-operational satellites, rocket bodies, and fragments generated from explosions, collisions, or faulty payload assembly.

Loading next visibility...
Identifier
61071, 2024-165A
Orbit
LEO
Last TLE update
6 hours ago
Origin
Flag of UnknownIslamic Revolutionary Guard Corps (IRGC) (Unknown / IRAN)
Manufacturer
IRGC
Mission
Operational spacecraft
Bus & Motor
Unknown
Mass
~200 kg wet, ~200 kg dry
Launch date (UTC)
2024-09-14 (10 months ago)
Launch vehicle
QAEM-100
Launch site
Sharud Missile Test Site (SMTS)
Object type
Payload
Rocket body
Debris
Shape & HBR
Unknown
Radar Cross Section
Medium (>0.1 m² and <1 m²)

Expand to show TLE details & history

TLE from 6 hours ago
0 QAEM 100 R/B
1 61071U 24165A   25182.15780490  .00002953  00000-0  18379-3 0  9995
2 61071  64.0745 109.7085 0034222 325.0264  34.8604 15.11329922 43746
Epoch: 2025-07-01T03:47Z
TLE epoch observation values (Epoch: 2025-07-01T03:47:14.343Z)
Latitude
0.00004°
Longitude
133.44148°
Altitude
514.728 km
Speed
7.618 km/s
True Right ascension
07h 18m 50s
True Declination
0° 00' 00"
Sunlit
Object was in daylight at epoch
Visualization orbit readout
Latitude
12.61486°
Longitude
138.77397°
Altitude
517.81 km
Speed
7.615 km/s
Apparent Right ascension
08h 34m 46s
Apparent Declination
-12° 58' 17"
Sunlit
Object is in daylight
Visualization observer readout
Local Sidereal Time
21:50:27
Azimuth
37.001° NE
Elevation
-58.327°
Doppler factor
1
Orbital elements
Apogee altitude
554.432 km
Perigee altitude
507.145 km
Semi-major axis
6,908.925 km
Eccentricity
0.00342
Inclination
64.0745°
RAAN
109.7085°
Arg. of periapsis
325.0264°
True anomaly
Unknown
Mean anomaly
34.8604°
Eccentric anomaly
Unknown
Mean motion
3.77944 °/min
Orbital period
95.25 mins
BSTAR
0.00018379
Loading maneuver chart data...
Loading SW <> Apogee altitude chart data...
Loading historical data...
Loading historical data...
Loading historical data...
Loading historical data...
Loading historical data...
Loading historical data...
Loading historical data...
Other satellites on launch #165 in the year 2024 (2024-09-14 UTC)

QAEM 100 R/B Visibility forecast

Observer location: undefined°, undefined°

Span
Click to sort rows by Start time (UTC) header in descending order
Start Az.
Max El. time (UTC)
Max El. Az.
Max El.
End time (UTC)
End Az.
5 mins2025-07-01 21:26:02.986Z242.554° WSW2025-07-01 21:28:02.986Z309.671° NW37.412°2025-07-01 21:31:02.986Z19.141° NNE
6 mins2025-07-02 05:45:02.986Z327.225° NNW2025-07-02 05:47:02.986Z326.453° NNW44.004°2025-07-02 05:51:02.986Z148.479° SSE
|